Bangor, ME

4:56 AM EDT on July 27, 2017 (GMT -0400)
Bangor International

Weather History for KBGR - August, 2013

Change the Weather History Date:

Wednesday, August 21, 2013

  Actual Average Record
Temperature  
Mean Temperature 73 °F 66 °F  
Max Temperature 87 °F 78 °F 95 °F (1937)
Min Temperature 59 °F 55 °F 38 °F (1940)
Degree Days  
Heating Degree Days 0 1  
Month to date heating degree days 11 21  
Since 1 June heating degree days 119 151  
Since 1 July heating degree days 19 44  
Cooling Degree Days 8 3  
Month to date cooling degree days 36 77  
Year to date cooling degree days 286 267  
Since 1 June cooling degree days 278 261  
Growing Degree Days 23 (Base 50)    
Moisture  
Dew Point 62 °F    
Average Humidity 73    
Maximum Humidity 100    
Minimum Humidity 45    
Precipitation  
Precipitation 0.00 in 0.09 in 1.11 in (1962)
Month to date precipitation 3.26 2.08  
Year to date precipitation 23.75 25.35  
Snow  
Snow 0.00 in 0.00 in 0.00 in (2002)
Month to date snowfall 0.0 0.0  
Since 1 June snowfall 0.0 0.0  
Since 1 July snowfall 0.0 0.0  
Snow Depth 0.00 in    
Sea Level Pressure  
Sea Level Pressure 30.04 in    
Wind  
Wind Speed 4 mph (SSW)    
Max Wind Speed 14 mph    
Max Gust Speed 20 mph    
Visibility 10 miles    
Events      
T = Trace of Precipitation, MM = Missing Value Source: NWS Daily Summary

Daily Weather History Graph

Daily Weather History Graph

Search for Another Location

Airport or City:

Trip Planner

Search our weather history database for the weather conditions in past years. The results will help you decide how hot, cold, wet, or windy it might be!

Date:

Astronomy

Aug. 21, 2013 Rise Set
Actual Time 5:44 AM EDT 7:31 PM EDT
Civil Twilight 5:13 AM EDT 8:02 PM EDT
Nautical Twilight 4:35 AM EDT 8:40 PM EDT
Astronomical Twilight 3:54 AM EDT 9:21 PM EDT
Moon 7:32 PM EDT (8/21) 6:24 AM EDT (8/21)
Length of Visible Light 14h 48m
Length of Day
13h 46m
Full, 100% of the Moon is Illuminated
Aug 21
Full
Aug 28
Last Quarter
Sep 5
New
Sep 12
First Quarter
Sep 19
Full

Hourly Weather History & Observations

Time (EDT) Temp. Heat Index Dew Point Humidity Pressure Visibility Wind Dir Wind Speed Gust Speed Precip Events Conditions
12:53 AM 62.1 °F - 60.1 °F 93% 30.06 in 10.0 mi Calm Calm - N/A   Scattered Clouds
1:53 AM 62.1 °F - 60.1 °F 93% 30.07 in 10.0 mi Calm Calm - N/A   Scattered Clouds
2:53 AM 61.0 °F - 60.1 °F 97% 30.08 in 10.0 mi Calm Calm - N/A   Partly Cloudy
3:53 AM 60.1 °F - 57.9 °F 93% 30.08 in 10.0 mi Calm Calm - N/A   Partly Cloudy
4:53 AM 61.0 °F - 57.9 °F 90% 30.08 in 10.0 mi Calm Calm - N/A   Scattered Clouds
5:53 AM 61.0 °F - 59.0 °F 93% 30.08 in 6.0 mi Calm Calm - N/A   Scattered Clouds
6:53 AM 64.0 °F - 61.0 °F 90% 30.10 in 7.0 mi Calm Calm - N/A   Scattered Clouds
7:53 AM 69.1 °F - 62.1 °F 78% 30.10 in 9.0 mi Calm Calm - N/A   Partly Cloudy
8:53 AM 73.9 °F - 63.0 °F 68% 30.10 in 10.0 mi SW 4.6 mph - N/A   Clear
9:53 AM 79.0 °F - 64.0 °F 60% 30.09 in 10.0 mi SW 4.6 mph - N/A   Partly Cloudy
10:53 AM 82.0 °F 83.4 °F 64.0 °F 54% 30.08 in 10.0 mi SSW 10.4 mph 16.1 mph N/A   Partly Cloudy
11:53 AM 84.0 °F 85.4 °F 64.0 °F 51% 30.06 in 10.0 mi SSW 11.5 mph - N/A   Partly Cloudy
12:53 PM 84.9 °F 86.1 °F 64.0 °F 49% 30.05 in 10.0 mi SSW 8.1 mph - N/A   Partly Cloudy
1:53 PM 84.9 °F 85.9 °F 63.0 °F 48% 30.04 in 10.0 mi WSW 10.4 mph 16.1 mph N/A   Scattered Clouds
2:53 PM 86.0 °F 86.8 °F 63.0 °F 46% 30.02 in 10.0 mi SW 10.4 mph 16.1 mph N/A   Scattered Clouds
3:53 PM 86.0 °F 86.8 °F 63.0 °F 46% 30.01 in 10.0 mi SSW 10.4 mph 17.3 mph N/A   Scattered Clouds
4:53 PM 82.9 °F 85.0 °F 66.0 °F 56% 30.00 in 10.0 mi South 5.8 mph - N/A   Partly Cloudy
5:53 PM 82.0 °F 83.8 °F 64.9 °F 56% 29.98 in 10.0 mi South 9.2 mph - N/A   Clear
6:53 PM 78.1 °F - 64.0 °F 62% 29.97 in 10.0 mi South 11.5 mph - N/A   Clear
7:53 PM 75.0 °F - 63.0 °F 66% 29.97 in 10.0 mi South 9.2 mph - N/A   Clear
8:53 PM 73.0 °F - 63.0 °F 71% 29.97 in 10.0 mi South 8.1 mph - N/A   Clear
9:53 PM 72.0 °F - 62.1 °F 71% 29.96 in 10.0 mi SSW 9.2 mph - N/A   Clear
10:53 PM 70.0 °F - 62.1 °F 76% 29.97 in 10.0 mi SSW 8.1 mph - N/A   Clear
11:53 PM 69.1 °F - 62.1 °F 78% 29.96 in 10.0 mi SSW 4.6 mph - N/A   Clear